FENGYUN 1C DEB

Satellite information

Favourite Embed

Satellite Type and Status

DEBRISIN ORBIT

Key statistics

Satellite FENGYUN 1C DEB at a glance.

Uptime

9715

Days in orbit

Revolutions

≈ 14.3

Per day

Orbit

SSO

Sun Synchronous Orbit

Inclination

98.8

Latest

Satellite identification and parameters

Extended collection of information and parameters for FENGYUN 1C DEB.

Object identification

Identified? True

Debris? True

Object name: FENGYUN 1C DEB

International designator: 1999-025ADD

Object number (NORAD): 30390

Object ID (CCSDS): 30390

Country: PEOPLES REPUBLIC OF CHINA (PRC)

Current information (Y/N): Y

RCS size: SMALL

Orbital parameters

Period: 100.719 minutes

Inclination: 98.8229 deg

SMA: 7170.79 km

Apoapsis: 841.396 km

Periapsis: 743.914 km

RAAN: 69.392 deg

Eccentricy: 0.00679718

Argument of periapsis: 166.2929 deg

Mean anomaly: 259.7057 deg

Mean motion: 14.29724054 rev/day

Mean motion (dot): 0.0000755 rev/day2

B* drag term: 0.0028840839 1/REarth

Two-line elements (TLE)

Creation date: Dec. 12, 2025, 10:14 a.m.

Reference frame: TEME

Reference center: EARTH

Epoch: Dec. 12, 2025, 4:37 a.m. UTC

TLE line 0: 0 FENGYUN 1C DEB

TLE line 1: 1 30390U 99025ADD 25346.19258966 .00007550 00000-0 28841-2 0 9998

TLE line 2: 2 30390 98.8229 69.3920 0067972 166.2929 259.7057 14.29724054973765

Live tracking on map

Real-time ground track for satellite FENGYUN 1C DEB.

In-orbit conjunctions

A list of the most updated potential collisions computed for object FENGYUN 1C DEB.

Target Orbit TCA Probability of collision Miss distance Type
TRANSIT 2A LEO 2025-11-16 12:25:30 0.0002648599 328.0 (m) PAYLOAD
SL-8 R/B LEO 2025-11-06 04:33:16 0.0001153596 459.0 (m) ROCKET BODY
DMSP 5D-2 F13 DEB SSO 2025-01-22 02:12:58 0.0001032162 258.0 (m) DEBRIS
SCOUT G-1 R/B LEO 2024-12-20 15:16:49 0.0002448382 169.0 (m) ROCKET BODY
CZ-6A DEB SSO 2024-10-16 07:55:58 0.0001701097 102.0 (m) DEBRIS

Associated space launch

Chinese polar orbiting meteorological satellite

FENGYUN 1C DEB was lifted into orbit during the mission ‘Long March 4B | Feng Yun 1C’, on board a Long March 4B space rocket.

The launch took place on May 10, 1999, 1:33 a.m. from Launch Complex 7.

For more information about the launch, click the button.

Launch to space Long March 4B | Feng Yun 1C
Long March 4B | Feng Yun 1C

Agency: N/A

Status: Launch Successful

Launch date: May 10, 1999, 1:33 a.m. UTC

Rocket: Long March 4B

Launch pad: Launch Complex 7

Location: Taiyuan Satellite Launch Center, People's Republic of China

...

Latest news about this satellite

There are no fresh news available about this satellite. Check back as we update our databases every day.


Newsletter sign-up

Weekly statistics, charts and insights to help you stay on top of the space industry.